Kansas City, MO

11:42 AM CST on February 21, 2017 (GMT -0600)
Kansas City Downtown

Weather History for KMKC - October, 2011

Change the Weather History Date:

Tuesday, October 4, 2011

  Actual Average Record
Temperature  
Mean Temperature 72 °F -  
Max Temperature 87 °F 70 °F 89 °F (2013)
Min Temperature 57 °F 50 °F 39 °F (1999)
Cooling Degree Days 6    
Growing Degree Days 22 (Base 50)    
Moisture  
Dew Point 43 °F    
Average Humidity 40    
Maximum Humidity 65    
Minimum Humidity 20    
Precipitation  
Precipitation 0.00 in - - ()
Sea Level Pressure  
Sea Level Pressure 30.15 in    
Wind  
Wind Speed 4 mph (South)    
Max Wind Speed 12 mph    
Max Gust Speed 18 mph    
Visibility 10 miles    
Events      
Averages and records for this station are not official NWS values.
T = Trace of Precipitation, MM = Missing Value Source: NWS Daily Summary

Daily Weather History Graph

Daily Weather History Graph

Search for Another Location

Airport or City:

Trip Planner

Search our weather history database for the weather conditions in past years. The results will help you decide how hot, cold, wet, or windy it might be!

Date:

Astronomy

Oct. 04, 2011 Rise Set
Actual Time 7:16 AM CDT 6:56 PM CDT
Civil Twilight 6:50 AM CDT 7:23 PM CDT
Nautical Twilight 6:19 AM CDT 7:54 PM CDT
Astronomical Twilight 5:48 AM CDT 8:25 PM CDT
Moon 2:56 PM CDT (10/4) 12:04 AM CDT (10/4)
Length of Visible Light 12h 33m
Length of Day
11h 39m
First Quarter, 56% of the Moon is Illuminated
Oct 4
First Quarter
Oct 11
Full
Oct 19
Last Quarter
Oct 26
New
Nov 2
First Quarter

Hourly Weather History & Observations

Time (CDT) Temp. Dew Point Humidity Pressure Visibility Wind Dir Wind Speed Gust Speed Precip Events Conditions
12:54 AM 64.0 °F 42.1 °F 45% 30.16 in 10.0 mi Calm Calm - N/A   Clear
1:54 AM 61.0 °F 46.9 °F 60% 30.17 in 10.0 mi Calm Calm - N/A   Clear
2:54 AM 60.1 °F 46.9 °F 62% 30.16 in 10.0 mi Calm Calm - N/A   Clear
3:54 AM 57.9 °F 45.0 °F 62% 30.17 in 10.0 mi Calm Calm - N/A   Clear
4:54 AM 57.0 °F 44.1 °F 62% 30.17 in 10.0 mi East 3.5 mph - N/A   Clear
5:54 AM 57.9 °F 45.0 °F 62% 30.18 in 10.0 mi Calm Calm - N/A   Clear
6:54 AM 59.0 °F 45.0 °F 60% 30.20 in 10.0 mi SW 4.6 mph - N/A   Clear
7:54 AM 57.9 °F 46.0 °F 65% 30.22 in 10.0 mi Calm Calm - N/A   Clear
8:54 AM 64.4 °F 46.4 °F 52% 30.23 in 10.0 mi South 5.8 mph - N/A   Clear
9:54 AM 70.0 °F 46.0 °F 42% 30.22 in 10.0 mi SSW 6.9 mph - N/A   Clear
10:54 AM 73.9 °F 44.1 °F 34% 30.21 in 10.0 mi South 8.1 mph - N/A   Clear
11:54 AM 79.0 °F 44.1 °F 29% 30.19 in 10.0 mi SSW 9.2 mph - N/A   Clear
12:54 PM 82.4 °F 42.8 °F 25% 30.18 in 10.0 mi South 11.5 mph - N/A   Clear
1:54 PM 84.2 °F 42.8 °F 23% 30.16 in 10.0 mi South 9.2 mph - N/A   Clear
2:54 PM 86.0 °F 42.1 °F 21% 30.12 in 10.0 mi SSW 9.2 mph - N/A   Clear
3:54 PM 86.0 °F 41.0 °F 20% 30.11 in 10.0 mi South 10.4 mph 18.4 mph N/A   Clear
4:54 PM 86.0 °F 41.0 °F 20% 30.10 in 10.0 mi South 8.1 mph - N/A   Clear
5:54 PM 84.0 °F 39.9 °F 21% 30.09 in 10.0 mi South 10.4 mph 16.1 mph N/A   Clear
6:54 PM 80.1 °F 42.1 °F 26% 30.09 in 10.0 mi SSE 4.6 mph - N/A   Clear
7:54 PM 80.1 °F 41.0 °F 25% 30.10 in 10.0 mi SSE 9.2 mph - N/A   Clear
8:54 PM 77.0 °F 41.0 °F 28% 30.11 in 10.0 mi SSE 10.4 mph - N/A   Clear
9:54 PM 73.0 °F 42.1 °F 33% 30.12 in 10.0 mi South 9.2 mph - N/A   Clear
10:54 PM 71.1 °F 43.0 °F 36% 30.12 in 10.0 mi SSW 6.9 mph - N/A   Clear
11:54 PM 69.1 °F 43.0 °F 39% 30.12 in 10.0 mi SW 5.8 mph - N/A   Clear